Skip Page Navigation
NASA JPL Caltech
NASA Logo - Jet Propulsion Laboratory + View the NASA Portal
+ Center for Near-Earth Object Studies
JPL Home Earth Solar System Stars & Galaxies Technology
JPL Solar System Dynamics
BODIES ORBITS EPHEMERIDES TOOLS PHYSICAL DATA DISCOVERY FAQ SITE MAP
JPL Small-Body Database Browser
Search: [ help ]  
15003 Midori (1997 XC10)
Classification: Main-belt Asteroid          SPK-ID: 2015003
Ephemeris | Orbit Diagram | Orbital Elements | Mission Design | Physical Parameters | Discovery Circumstances ]

[ hide orbit diagram ]

For accurate long-term ephemerides, please instead use our Horizons system.This orbit viewer was implemented using two-body methods, and hence should not be used for determining accurate long-term trajectories (over several years or decades) or planetary encounter circumstances.


Orbital Elements at Epoch 2459200.5 (2020-Dec-17.0) TDB
Reference: JPL 31 (heliocentric ecliptic J2000)
 Element Value Uncertainty (1-sigma)   Units 
e .1111400094808077 2.2708e-08  
a 2.984595252594994 1.4572e-08 au
q 2.652887307925213 7.4003e-08 au
i 9.228401501167136 5.6056e-07 deg
node 233.1781338162173 2.728e-06 deg
peri 91.20786027831269 6.4038e-06 deg
M 267.7412530357409 5.8303e-06 deg
tp 2459683.149258931483
(2022-Apr-13.64925893)
3.1946e-05 TDB
period 1883.330729417405
5.16
1.3793e-05
3.776e-08
d
yr
n .1911507067647983 1.3999e-09 deg/d
Q 3.316303197264775 1.6192e-08 au
  Orbit Determination Parameters
   # obs. used (total)      2058  
   data-arc span      12610 days (34.52 yr)  
   first obs. used      1986-09-12  
   last obs. used      2021-03-22  
   planetary ephem.      DE441  
   SB-pert. ephem.      SB441-N16  
   condition code      0  
   norm. resid. RMS      .47346  
   source      ORB  
   producer      Otto Matic  
   solution date      2021-May-04 01:55:44  

Additional Information
 Earth MOID = 1.65988 au 
 Jupiter MOID = 2.01381 au 
 T_jup = 3.229 
[ show covariance matrix ]

Ephemeris | Orbit Diagram | Orbital Elements | Mission Design | Physical Parameters | Discovery Circumstances ]

Physical Parameter Table
Parameter Symbol Value Units Sigma Reference Notes
absolute magnitude H 12.8   n/a MPO435841  
diameter diameter 9.711 km 0.128 urn:nasa:pds:neowise_diameters_albedos::2.0[mainbelt] (http://adsabs.harvard.edu/abs/2011ApJ...741...68M)  
rotation period rot_per 23.4939 h n/a LCDB (Rev. 2020-October); Warner et al., 2009 Result based on less than full coverage, so that the period may be wrong by 30 percent or so.
Published Reference List:
[Pal, A.; Szakats, R.; Kiss, C.; Bodi, A.; et al. (2019) Ap. J. Supl. Ser. 247, id.26.]
geometric albedo albedo 0.171   0.034 urn:nasa:pds:neowise_diameters_albedos::2.0[mainbelt] (http://adsabs.harvard.edu/abs/2011ApJ...741...68M)  

15003 Midori           Discovered 1997 Dec. 5 by T. Kobayashi at Oizumi.
Midori Goto (b. 1971) is an extremely talented violinist, and she has also contributed much to musical education for children. In July 2002, on the 20th anniversary of her international debut, she will give a series of recitals entitled Total Experience.
NOTE: some special characters may not display properly (any characters within {} are an attempt to place the proper accent above a character)
Reference: 20020427/MPCPages.arcLast Updated: 2003-10-02

Alternate Designations
 1997 XC10 = 1986 RX15 = 1999 CY111 
Ephemeris | Orbit Diagram | Orbital Elements | Mission Design | Physical Parameters | Discovery Circumstances ]
ABOUT SSD CREDITS/AWARDS PRIVACY/COPYRIGHT GLOSSARY LINKS
FirstGov 2021-May-18 03:09 UT
(server date/time)  
NASA Home Page
Site Manager:   Ryan S. Park
Webmaster  Alan B. Chamberlin